This demonstration page uses our WeatherBlox Daily Observations layout. Learn more.

Left ArrowRight Arrow

47.50024, -111.30081

Hourly Observations for January 12, 2022

Temp ( °F °C ) Dew Point ( °F °C ) Humidity (%) Winds ( mph kmh ) Pressure ( in mb ) Visibility ( mi km ) Precip ( " mm )
12:53 am 00:53 Clear 42 5.6 28 -2.2 58 58 SSW 24 39 30.11 1020 10 16 0.00 0.00
1:53 am 01:53 Clear 43 6.1 28 -2.2 56 56 SSW 24 39 30.08 1019 10 16 0.00 0.00
2:53 am 02:53 Clear 43 6.1 29 -1.7 58 58 SW 20 31 30.08 1019 10 16 0.00 0.00
3:53 am 03:53 Clear 43 6.1 30 -1.1 60 60 SW 23 37 30.07 1018 10 16 0.00 0.00
4:53 am 04:53 Clear 43 6.1 30 -1.1 60 60 SW 24 39 30.07 1018 10 16 0.00 0.00
5:53 am 05:53 Clear 44 6.7 31 -0.6 60 60 SW 28 44 30.06 1018 10 16 0.00 0.00
6:53 am 06:53 Clear 45 7.2 30 -1.1 56 56 SW 29 46 30.08 1019 10 16 0.00 0.00
7:53 am 07:53 Clear 45 7.2 31 -0.6 58 58 SW 35 56 30.07 1018 10 16 0.00 0.00
8:53 am 08:53 Sunny 45 7.2 31 -0.6 58 58 SW 35 56 30.08 1019 10 16 0.00 0.00
9:53 am 09:53 Sunny 46 7.8 31 -0.6 56 56 SW 36 57 30.09 1019 10 16 0.00 0.00
10:53 am 10:53 Sunny 46 7.8 31 -0.6 56 56 SW 25 41 30.13 1020 10 16 0.00 0.00
11:53 am 11:53 Sunny 46 7.8 32 0 58 58 SW 33 54 30.10 1019 10 16 0.00 0.00
12:53 pm 12:53 Sunny 47 8.3 33 0.6 59 59 SW 32 52 30.11 1020 10 16 0.00 0.00
1:53 pm 13:53 Sunny 47 8.3 33 0.6 59 59 SW 31 50 30.09 1019 10 16 0.00 0.00
2:53 pm 14:53 Sunny 51 10.6 35 1.7 54 54 SW 33 54 30.09 1019 10 16 0.00 0.00
3:53 pm 15:53 Partly Cloudy 48 8.9 35 1.7 61 61 SW 28 44 30.12 1020 10 16 0.00 0.00
4:53 pm 16:53 Cloudy 48 8.9 35 1.7 61 61 SW 21 33 30.16 1021 10 16 0.00 0.00
5:53 pm 17:53 Cloudy 48 8.9 35 1.7 61 61 SW 18 30 30.15 1021 10 16 0.00 0.00
6:53 pm 18:53 Cloudy 47 8.3 34 1.1 61 61 SW 15 24 30.15 1021 10 16 0.00 0.00
7:53 pm 19:53 Cloudy 47 8.3 34 1.1 61 61 SW 14 22 30.18 1022 10 16 0.00 0.00
8:53 pm 20:53 Clear 46 7.8 33 0.6 61 61 SW 16 26 30.16 1021 10 16 0.00 0.00
9:53 pm 21:53 Clear 46 7.8 34 1.1 63 63 SW 18 30 30.14 1021 10 16 0.00 0.00
10:53 pm 22:53 Clear 48 8.9 34 1.1 58 58 SW 21 33 30.14 1021 10 16 0.00 0.00
11:53 pm 23:53 Clear 50 10 34 1.1 54 54 SW 24 39 30.11 1020 10 16 0.00 0.00

Powered by AerisWeather